Location: Earls Croome
(52.0667°N, 2.2000°W)
Time: 00:20:42
(UTC+00:00)

COSMOS 2455 - Pass Details

Date: 22 February 2020
Orbit: 901 x 908 km, 67.2° (Epoch: 01 April)

Event Time Altitude Azimuth Distance (km) Brightness Sun altitude
Exits shadow 03:25:53 17° 344° (NNW) 2,127 4.9 -34.3°
Maximum altitude 03:27:54 20° 9° (N) 1,976 4.9 -34.0°
Drops below altitude 10° 03:32:15 10° 56° (NE) 2,600 6.1 -33.5°
Sets 03:35:30 0° 73° (ENE) 3,541 7.0 -33.0°
